| time (UTC) | temp F | wind direction | speed MPH | gust MPH | rain 1hr in | rain 24hr in | rain mn in | humidity % | barometer mb |
| 20260505193601 | 83 | 182 | 1.0 | 1.0 | 0.00 | 0.00 | 0.00 | 79 | 1007.9 |
| 20260505193058 | 83 | 206 | 5.0 | 8.0 | 0.00 | 0.00 | 0.00 | 77 | 1008.3 |
| 20260505192557 | 82 | 227 | 6.0 | 10.0 | 0.00 | 0.00 | 0.00 | 78 | 1008.3 |
| 20260505192054 | 83 | 176 | 6.0 | 8.0 | 0.00 | 0.00 | 0.00 | 78 | 1008.2 |
| 20260505191552 | 82 | 129 | 4.0 | 6.0 | 0.00 | 0.00 | 0.00 | 79 | 1007.8 |
| 20260505191049 | 82 | 166 | 8.0 | 9.0 | 0.00 | 0.00 | 0.00 | 78 | 1008.2 |
| 20260505190544 | 82 | 160 | 6.0 | 9.0 | 0.00 | 0.00 | 0.00 | 78 | 1008.1 |
| 20260505190040 | 82 | 276 | 3.0 | 7.0 | 0.00 | 0.00 | 0.00 | 79 | 1008.3 |
| 20260505185537 | 82 | 167 | 4.0 | 6.0 | 0.00 | 0.00 | 0.00 | 79 | 1008.1 |
| 20260505185033 | 82 | 157 | 7.0 | 9.0 | 0.00 | 0.00 | 0.00 | 78 | 1008.3 |
| 20260505184530 | 82 | 134 | 2.0 | 3.0 | 0.00 | 0.00 | 0.00 | 80 | 1008.5 |
| 20260505184027 | 82 | 135 | 2.0 | 3.0 | 0.00 | 0.00 | 0.00 | 80 | 1008.5 |
| 20260505183524 | 81 | 199 | 8.0 | 13.0 | 0.00 | 0.00 | 0.00 | 80 | 1008.7 |
| 20260505183021 | 81 | 64 | 3.0 | 3.0 | 0.00 | 0.00 | 0.00 | 80 | 1008.5 |
| 20260505182518 | 81 | 147 | 8.0 | 10.0 | 0.00 | 0.00 | 0.00 | 81 | 1008.5 |
| 20260505182014 | 80 | 232 | 5.0 | 8.0 | 0.00 | 0.00 | 0.00 | 82 | 1008.5 |
| 20260505181511 | 80 | 152 | 3.0 | 3.0 | 0.00 | 0.00 | 0.00 | 81 | 1009.1 |
| 20260505181009 | 81 | 165 | 4.0 | 5.0 | 0.00 | 0.00 | 0.00 | 80 | 1009.2 |
| 20260505180504 | 81 | 147 | 1.0 | 2.0 | 0.00 | 0.00 | 0.00 | 81 | 1009.0 |
| 20260505180002 | 81 | 133 | 6.0 | 8.0 | 0.00 | 0.00 | 0.00 | 80 | 1009.1 |
| 20260505175457 | 81 | 166 | 5.0 | 10.0 | 0.00 | 0.00 | 0.00 | 82 | 1009.0 |
| 20260505174954 | 80 | 142 | 1.0 | 1.0 | 0.00 | 0.00 | 0.00 | 82 | 1009.0 |
| 20260505174451 | 80 | 147 | 5.0 | 8.0 | 0.00 | 0.00 | 0.00 | 82 | 1009.0 |
| 20260505173947 | 80 | 230 | 3.0 | 6.0 | 0.00 | 0.00 | 0.00 | 83 | 1009.6 |
| 20260505173444 | 79 | 303 | 3.0 | 3.0 | 0.00 | 0.00 | 0.00 | 85 | 1009.6 |
| 20260505172941 | 78 | 188 | 2.0 | 3.0 | 0.00 | 0.00 | 0.00 | 86 | 1009.6 |
| 20260505172439 | 78 | 182 | 5.0 | 7.0 | 0.00 | 0.00 | 0.00 | 86 | 1009.5 |
| 20260505171938 | 78 | 156 | 2.0 | 5.0 | 0.00 | 0.00 | 0.00 | 87 | 1009.6 |
| 20260505171435 | 78 | 159 | 4.0 | 7.0 | 0.00 | 0.00 | 0.00 | 87 | 1009.2 |
| 20260505170932 | 78 | 209 | 3.0 | 3.0 | 0.00 | 0.00 | 0.00 | 87 | 1009.2 |
| 20260505170429 | 77 | 179 | 3.0 | 3.0 | 0.00 | 0.00 | 0.00 | 88 | 1009.1 |
| 20260505165924 | 77 | 140 | 1.0 | 1.0 | 0.00 | 0.00 | 0.00 | 89 | 1009.6 |
| 20260505165420 | 76 | 140 | 2.0 | 3.0 | 0.00 | 0.00 | 0.00 | 89 | 1009.4 |
| 20260505164916 | 77 | 159 | 5.0 | 7.0 | 0.00 | 0.00 | 0.00 | 89 | 1009.5 |
| 20260505164413 | 77 | 214 | 2.0 | 2.0 | 0.00 | 0.00 | 0.00 | 88 | 1009.3 |
| 20260505163911 | 77 | 184 | 1.0 | 1.0 | 0.00 | 0.00 | 0.00 | 88 | 1009.3 |
| 20260505163410 | 77 | 172 | 3.0 | 6.0 | 0.00 | 0.00 | 0.00 | 88 | 1009.0 |
| 20260505162908 | 76 | 158 | 4.0 | 5.0 | 0.00 | 0.00 | 0.00 | 89 | 1009.3 |
| 20260505162403 | 76 | 114 | 5.0 | 7.0 | 0.00 | 0.00 | 0.00 | 89 | 1009.6 |
| 20260505161900 | 76 | 144 | 3.0 | 3.0 | 0.00 | 0.00 | 0.00 | 90 | 1009.5 |
| 20260505161357 | 75 | 150 | 3.0 | 3.0 | 0.00 | 0.00 | 0.00 | 90 | 1009.6 |
| 20260505160854 | 75 | 156 | 5.0 | 6.0 | 0.00 | 0.00 | 0.00 | 90 | 1009.7 |
| 20260505160353 | 75 | 76 | 4.0 | 6.0 | 0.00 | 0.00 | 0.00 | 91 | 1009.5 |
| 20260505153331 | 74 | 172 | 6.0 | 9.0 | 0.00 | 0.00 | 0.00 | 93 | 1009.6 |
| 20260505152828 | 73 | 206 | 3.0 | 5.0 | 0.00 | 0.00 | 0.00 | 94 | 1009.5 |
| 20260505152325 | 73 | 157 | 3.0 | 7.0 | 0.00 | 0.00 | 0.00 | 94 | 1009.4 |
| 20260505151820 | 73 | 146 | 4.0 | 6.0 | 0.00 | 0.00 | 0.00 | 94 | 1009.5 |
| 20260505151317 | 73 | 180 | 5.0 | 7.0 | 0.00 | 0.00 | 0.00 | 94 | 1009.3 |
| 20260505150813 | 73 | 198 | 4.0 | 5.0 | 0.00 | 0.00 | 0.00 | 94 | 1009.5 |
| 20260505150311 | 73 | 39 | 2.0 | 2.0 | 0.00 | 0.00 | 0.00 | 94 | 1009.6 |
| 20260505140235 | 72 | 175 | 3.0 | 5.0 | 0.00 | 0.00 | 0.00 | 94 | 1009.3 |
| 20260505130159 | 71 | 158 | 3.0 | 6.0 | 0.00 | 0.00 | 0.00 | 95 | 1008.7 |
| 20260505124649 | 70 | 155 | 5.0 | 11.0 | 0.00 | 0.00 | 0.00 | 95 | 1008.7 |
| 20260505124145 | 70 | 205 | 3.0 | 5.0 | 0.00 | 0.00 | 0.00 | 95 | 1008.7 |
| 20260505123641 | 70 | 154 | 2.0 | 3.0 | 0.00 | 0.00 | 0.00 | 95 | 1008.4 |
| 20260505123139 | 70 | 161 | 5.0 | 6.0 | 0.00 | 0.00 | 0.00 | 95 | 1008.5 |
| 20260505122635 | 70 | 171 | 3.0 | 5.0 | 0.00 | 0.00 | 0.00 | 95 | 1008.5 |
| 20260505122132 | 70 | 189 | 3.0 | 3.0 | 0.00 | 0.00 | 0.00 | 95 | 1008.1 |
| 20260505121628 | 70 | 178 | 3.0 | 5.0 | 0.00 | 0.00 | 0.00 | 95 | 1008.1 |
| 20260505121125 | 70 | 203 | 2.0 | 5.0 | 0.00 | 0.00 | 0.00 | 95 | 1008.1 |
| 20260505120621 | 70 | 146 | 3.0 | 5.0 | 0.00 | 0.00 | 0.00 | 94 | 1008.2 |
| 20260505120118 | 70 | 323 | 3.0 | 3.0 | 0.00 | 0.00 | 0.00 | 94 | 1008.4 |
| 20260505115612 | 70 | 173 | 3.0 | 3.0 | 0.00 | 0.00 | 0.00 | 94 | 1008.0 |
| 20260505115110 | 70 | 177 | 3.0 | 5.0 | 0.00 | 0.00 | 0.00 | 94 | 1007.9 |
| 20260505114606 | 70 | 179 | 3.0 | 6.0 | 0.00 | 0.00 | 0.00 | 94 | 1007.9 |
| 20260505114103 | 70 | 182 | 4.0 | 6.0 | 0.00 | 0.00 | 0.00 | 94 | 1008.0 |
| 20260505113559 | 70 | 173 | 4.0 | 5.0 | 0.00 | 0.00 | 0.00 | 94 | 1007.8 |
| 20260505113056 | 70 | 168 | 2.0 | 3.0 | 0.00 | 0.00 | 0.00 | 94 | 1007.7 |
| 20260505112552 | 70 | 214 | 3.0 | 3.0 | 0.00 | 0.00 | 0.00 | 94 | 1007.9 |
| 20260505112050 | 70 | 157 | 5.0 | 6.0 | 0.00 | 0.00 | 0.00 | 94 | 1008.0 |
| 20260505111544 | 70 | 160 | 4.0 | 5.0 | 0.00 | 0.00 | 0.00 | 94 | 1007.6 |
| 20260505111040 | 70 | 171 | 2.0 | 2.0 | 0.00 | 0.00 | 0.00 | 94 | 1007.8 |
| 20260505110537 | 70 | 260 | 3.0 | 5.0 | 0.00 | 0.00 | 0.00 | 94 | 1007.8 |
| 20260505102009 | 70 | 211 | 4.0 | 5.0 | 0.00 | 0.00 | 0.00 | 95 | 1008.2 |
| 20260505101508 | 70 | 171 | 4.0 | 6.0 | 0.00 | 0.00 | 0.00 | 95 | 1008.2 |
| 20260505101004 | 70 | 155 | 2.0 | 2.0 | 0.00 | 0.00 | 0.00 | 95 | 1008.0 |
| 20260505100501 | 70 | 179 | 3.0 | 5.0 | 0.00 | 0.00 | 0.00 | 95 | 1007.9 |
| 20260505095957 | 70 | 159 | 4.0 | 6.0 | 0.00 | 0.00 | 0.00 | 95 | 1008.1 |
| 20260505095454 | 70 | 95 | 0.0 | 1.0 | 0.00 | 0.00 | 0.00 | 95 | 1008.1 |
| 20260505094950 | 70 | 165 | 3.0 | 3.0 | 0.00 | 0.00 | 0.00 | 94 | 1008.1 |
| 20260505094447 | 70 | 171 | 1.0 | 2.0 | 0.00 | 0.00 | 0.00 | 94 | 1008.1 |
| 20260505093943 | 70 | 199 | 2.0 | 6.0 | 0.00 | 0.00 | 0.00 | 94 | 1008.2 |
| 20260505093440 | 70 | 135 | 0.0 | 1.0 | 0.00 | 0.00 | 0.00 | 94 | 1008.1 |
| 20260505092937 | 70 | 142 | 4.0 | 5.0 | 0.00 | 0.00 | 0.00 | 94 | 1008.1 |
| 20260505092435 | 70 | 144 | 5.0 | 9.0 | 0.00 | 0.00 | 0.00 | 94 | 1008.0 |
| 20260505091932 | 70 | 202 | 6.0 | 8.0 | 0.00 | 0.00 | 0.00 | 94 | 1007.9 |
| 20260505091430 | 70 | 179 | 5.0 | 7.0 | 0.00 | 0.00 | 0.00 | 94 | 1008.0 |
| 20260505090927 | 70 | 125 | 5.0 | 11.0 | 0.00 | 0.00 | 0.00 | 94 | 1008.0 |
| 20260505090425 | 70 | 144 | 8.0 | 9.0 | 0.00 | 0.00 | 0.00 | 94 | 1008.1 |
| 20260505085922 | 70 | 169 | 5.0 | 5.0 | 0.00 | 0.00 | 0.00 | 94 | 1008.1 |
| 20260505085420 | 70 | 161 | 8.0 | 10.0 | 0.00 | 0.00 | 0.00 | 94 | 1008.4 |
| 20260505084918 | 70 | 224 | 7.0 | 10.0 | 0.00 | 0.00 | 0.00 | 94 | 1007.8 |
| 20260505084416 | 70 | 204 | 7.0 | 8.0 | 0.00 | 0.00 | 0.00 | 94 | 1008.2 |
| 20260505083914 | 70 | 178 | 5.0 | 6.0 | 0.00 | 0.00 | 0.00 | 94 | 1008.4 |
| 20260505083411 | 70 | 190 | 5.0 | 6.0 | 0.00 | 0.00 | 0.00 | 94 | 1008.1 |
| 20260505082907 | 70 | 139 | 3.0 | 5.0 | 0.00 | 0.00 | 0.00 | 94 | 1008.2 |
| 20260505082403 | 70 | 176 | 3.0 | 5.0 | 0.00 | 0.00 | 0.00 | 94 | 1008.6 |
| 20260505081900 | 70 | 173 | 3.0 | 5.0 | 0.00 | 0.00 | 0.00 | 94 | 1008.9 |
| 20260505081357 | 70 | 160 | 7.0 | 9.0 | 0.00 | 0.00 | 0.00 | 94 | 1008.6 |
| 20260505080853 | 70 | 154 | 2.0 | 3.0 | 0.00 | 0.00 | 0.00 | 94 | 1008.9 |
| 20260505080349 | 70 | 161 | 5.0 | 8.0 | 0.00 | 0.00 | 0.00 | 94 | 1008.9 |
| 20260505075845 | 70 | 176 | 3.0 | 5.0 | 0.00 | 0.00 | 0.00 | 93 | 1008.8 |
| 20260505075342 | 70 | 141 | 8.0 | 10.0 | 0.00 | 0.00 | 0.00 | 93 | 1009.2 |
| 20260505074839 | 70 | 144 | 5.0 | 8.0 | 0.00 | 0.00 | 0.00 | 93 | 1009.3 |
| 20260505074337 | 70 | 135 | 5.0 | 7.0 | 0.00 | 0.00 | 0.00 | 93 | 1009.4 |
| 20260505073834 | 70 | 152 | 3.0 | 5.0 | 0.00 | 0.00 | 0.00 | 93 | 1009.2 |
| 20260505073332 | 70 | 154 | 4.0 | 6.0 | 0.00 | 0.00 | 0.00 | 93 | 1009.1 |
| 20260505072828 | 70 | 197 | 3.0 | 6.0 | 0.00 | 0.00 | 0.00 | 93 | 1009.2 |
| 20260505072324 | 70 | 127 | 5.0 | 6.0 | 0.00 | 0.00 | 0.00 | 93 | 1009.6 |
| 20260505071820 | 70 | 143 | 5.0 | 7.0 | 0.00 | 0.00 | 0.00 | 93 | 1009.6 |
| 20260505071317 | 70 | 203 | 5.0 | 9.0 | 0.00 | 0.00 | 0.00 | 93 | 1009.7 |
| 20260505070816 | 70 | 211 | 5.0 | 6.0 | 0.00 | 0.00 | 0.00 | 93 | 1009.9 |
| 20260505070312 | 70 | 164 | 3.0 | 5.0 | 0.00 | 0.00 | 0.00 | 93 | 1009.7 |
| 20260505065807 | 70 | 152 | 5.0 | 7.0 | 0.00 | 0.00 | 0.00 | 93 | 1009.6 |
| 20260505065304 | 70 | 171 | 5.0 | 8.0 | 0.00 | 0.00 | 0.00 | 93 | 1009.5 |
| 20260505064801 | 70 | 209 | 3.0 | 3.0 | 0.00 | 0.00 | 0.00 | 93 | 1009.7 |
| 20260505064258 | 71 | 186 | 1.0 | 1.0 | 0.00 | 0.00 | 0.00 | 93 | 1010.1 |
| 20260505063756 | 71 | 141 | 3.0 | 3.0 | 0.00 | 0.00 | 0.00 | 93 | 1009.8 |
| 20260505063252 | 71 | 169 | 1.0 | 2.0 | 0.00 | 0.00 | 0.00 | 93 | 1010.2 |
| 20260505062749 | 71 | 152 | 3.0 | 6.0 | 0.00 | 0.00 | 0.00 | 93 | 1010.2 |
| 20260505062246 | 71 | 168 | 5.0 | 6.0 | 0.00 | 0.00 | 0.00 | 93 | 1010.2 |
| 20260505061743 | 71 | 151 | 2.0 | 2.0 | 0.00 | 0.00 | 0.00 | 92 | 1010.1 |
| 20260505061241 | 71 | 182 | 5.0 | 6.0 | 0.00 | 0.00 | 0.00 | 92 | 1009.8 |
| 20260505060738 | 71 | 171 | 1.0 | 2.0 | 0.00 | 0.00 | 0.00 | 92 | 1010.2 |
| 20260505060235 | 71 | 165 | 2.0 | 2.0 | 0.00 | 0.00 | 0.00 | 92 | 1010.2 |
| 20260505055730 | 71 | 184 | 4.0 | 6.0 | 0.00 | 0.00 | 0.00 | 92 | 1010.2 |
| 20260505055227 | 71 | 213 | 3.0 | 3.0 | 0.00 | 0.00 | 0.00 | 92 | 1009.9 |
| 20260505054724 | 71 | 187 | 2.0 | 3.0 | 0.00 | 0.00 | 0.00 | 92 | 1010.2 |
| 20260505054222 | 71 | 163 | 5.0 | 7.0 | 0.00 | 0.00 | 0.00 | 92 | 1010.2 |
| 20260505053720 | 71 | 176 | 2.0 | 2.0 | 0.00 | 0.00 | 0.00 | 92 | 1009.9 |
| 20260505053216 | 71 | 159 | 4.0 | 6.0 | 0.00 | 0.00 | 0.00 | 92 | 1010.1 |
| 20260505052714 | 71 | 171 | 3.0 | 3.0 | 0.00 | 0.00 | 0.00 | 91 | 1010.0 |
| 20260505052210 | 71 | 175 | 2.0 | 2.0 | 0.00 | 0.00 | 0.00 | 91 | 1010.0 |
| 20260505051708 | 71 | 149 | 2.0 | 2.0 | 0.00 | 0.00 | 0.00 | 91 | 1010.2 |
| 20260505051206 | 71 | 140 | 4.0 | 6.0 | 0.00 | 0.00 | 0.00 | 90 | 1010.2 |
| 20260505050703 | 71 | 166 | 3.0 | 3.0 | 0.00 | 0.00 | 0.00 | 90 | 1010.1 |
| 20260505050201 | 72 | 189 | 2.0 | 2.0 | 0.00 | 0.00 | 0.00 | 89 | 1009.8 |
| 20260505041631 | 72 | 138 | 4.0 | 6.0 | 0.00 | 0.00 | 0.00 | 87 | 1010.0 |
| 20260505041128 | 72 | 161 | 2.0 | 3.0 | 0.00 | 0.00 | 0.00 | 87 | 1010.0 |
| 20260505040625 | 73 | 178 | 3.0 | 3.0 | 0.00 | 0.00 | 0.00 | 87 | 1009.9 |
| 20260505040122 | 73 | 132 | 2.0 | 2.0 | 0.00 | 0.00 | 0.00 | 86 | 1010.0 |
| 20260505035618 | 73 | 160 | 3.0 | 3.0 | 0.00 | 0.00 | 0.00 | 86 | 1010.1 |
| 20260505035115 | 73 | 155 | 4.0 | 5.0 | 0.00 | 0.00 | 0.00 | 86 | 1010.0 |
| 20260505034612 | 73 | 187 | 3.0 | 5.0 | 0.00 | 0.00 | 0.00 | 85 | 1009.9 |
| 20260505034108 | 73 | 196 | 3.0 | 3.0 | 0.00 | 0.00 | 0.00 | 85 | 1009.9 |
| 20260505033605 | 73 | 167 | 2.0 | 3.0 | 0.00 | 0.00 | 0.00 | 85 | 1009.5 |
| 20260505033104 | 73 | 140 | 2.0 | 2.0 | 0.00 | 0.00 | 0.00 | 84 | 1009.5 |
| 20260505032601 | 73 | 160 | 2.0 | 3.0 | 0.00 | 0.00 | 0.00 | 84 | 1010.1 |
| 20260505032057 | 74 | 150 | 2.0 | 2.0 | 0.00 | 0.00 | 0.00 | 83 | 1010.0 |
| 20260505031555 | 74 | 153 | 3.0 | 6.0 | 0.00 | 0.00 | 0.00 | 83 | 1010.0 |
| 20260505031051 | 74 | 201 | 5.0 | 7.0 | 0.00 | 0.00 | 0.00 | 83 | 1009.9 |
| 20260505030548 | 74 | 127 | 2.0 | 3.0 | 0.00 | 0.00 | 0.00 | 83 | 1009.9 |
| 20260505030044 | 74 | 185 | 3.0 | 3.0 | 0.00 | 0.00 | 0.00 | 82 | 1009.7 |
| 20260505025540 | 74 | 158 | 1.0 | 2.0 | 0.00 | 0.00 | 0.00 | 82 | 1009.9 |
| 20260505025039 | 74 | 171 | 1.0 | 2.0 | 0.00 | 0.00 | 0.00 | 82 | 1009.8 |
| 20260505024536 | 74 | 174 | 1.0 | 2.0 | 0.00 | 0.00 | 0.00 | 81 | 1009.8 |
| 20260505024032 | 75 | 169 | 2.0 | 3.0 | 0.00 | 0.00 | 0.00 | 81 | 1009.6 |
| 20260505023530 | 75 | 170 | 3.0 | 3.0 | 0.00 | 0.00 | 0.00 | 80 | 1009.9 |
| 20260505023027 | 75 | 216 | 3.0 | 3.0 | 0.00 | 0.00 | 0.00 | 80 | 1009.5 |
| 20260505022525 | 75 | 168 | 2.0 | 2.0 | 0.00 | 0.00 | 0.00 | 80 | 1009.4 |
| 20260505022022 | 75 | 167 | 5.0 | 7.0 | 0.00 | 0.00 | 0.00 | 80 | 1009.5 |
| 20260505021518 | 75 | 163 | 3.0 | 3.0 | 0.00 | 0.00 | 0.00 | 80 | 1009.7 |
| 20260505021015 | 75 | 163 | 4.0 | 6.0 | 0.00 | 0.00 | 0.00 | 79 | 1009.5 |
| 20260505020514 | 75 | 207 | 1.0 | 2.0 | 0.00 | 0.00 | 0.00 | 79 | 1009.4 |
| 20260505020012 | 75 | 140 | 4.0 | 5.0 | 0.00 | 0.00 | 0.00 | 79 | 1009.2 |
| 20260505015509 | 75 | 203 | 3.0 | 3.0 | 0.00 | 0.00 | 0.00 | 78 | 1009.3 |
| 20260505015006 | 75 | 181 | 6.0 | 7.0 | 0.00 | 0.00 | 0.00 | 78 | 1009.2 |
| 20260505014503 | 75 | 159 | 3.0 | 5.0 | 0.00 | 0.00 | 0.00 | 78 | 1009.2 |
| 20260505014000 | 75 | 157 | 2.0 | 3.0 | 0.00 | 0.00 | 0.00 | 78 | 1009.2 |
| 20260505013457 | 75 | 181 | 4.0 | 6.0 | 0.00 | 0.00 | 0.00 | 78 | 1009.2 |
| 20260505012954 | 76 | 178 | 2.0 | 3.0 | 0.00 | 0.00 | 0.00 | 78 | 1009.3 |
| 20260505012452 | 76 | 152 | 3.0 | 5.0 | 0.00 | 0.00 | 0.00 | 78 | 1009.4 |
| 20260505011949 | 76 | 188 | 3.0 | 3.0 | 0.00 | 0.00 | 0.00 | 78 | 1009.3 |
| 20260505011445 | 76 | 170 | 2.0 | 2.0 | 0.00 | 0.00 | 0.00 | 78 | 1009.4 |
| 20260505010942 | 76 | 148 | 3.0 | 5.0 | 0.00 | 0.00 | 0.00 | 77 | 1009.4 |
| 20260505010437 | 76 | 174 | 1.0 | 1.0 | 0.00 | 0.00 | 0.00 | 77 | 1009.1 |
| 20260505005934 | 77 | 199 | 3.0 | 5.0 | 0.00 | 0.00 | 0.00 | 76 | 1009.1 |
| 20260505005431 | 77 | 207 | 4.0 | 5.0 | 0.00 | 0.00 | 0.00 | 75 | 1009.3 |
| 20260505004928 | 77 | 163 | 2.0 | 3.0 | 0.00 | 0.00 | 0.00 | 75 | 1009.4 |
| 20260505004425 | 77 | 173 | 1.0 | 1.0 | 0.00 | 0.00 | 0.00 | 75 | 1009.4 |
| 20260505003922 | 77 | 202 | 2.0 | 3.0 | 0.00 | 0.00 | 0.00 | 75 | 1009.4 |
| 20260505003419 | 78 | 191 | 2.0 | 5.0 | 0.00 | 0.00 | 0.00 | 74 | 1009.3 |
| 20260505002915 | 78 | 211 | 4.0 | 5.0 | 0.00 | 0.00 | 0.00 | 73 | 1009.5 |
| 20260505002411 | 78 | 191 | 6.0 | 7.0 | 0.00 | 0.00 | 0.00 | 73 | 1009.3 |
| 20260505001910 | 78 | 163 | 6.0 | 7.0 | 0.00 | 0.00 | 0.00 | 72 | 1009.5 |
| 20260505001407 | 78 | 153 | 2.0 | 3.0 | 0.00 | 0.00 | 0.00 | 72 | 1009.4 |
| 20260505000904 | 79 | 212 | 4.0 | 5.0 | 0.00 | 0.00 | 0.00 | 71 | 1009.2 |
| 20260505000402 | 79 | 165 | 5.0 | 10.0 | 0.00 | 0.00 | 0.00 | 70 | 1009.6 |
| 20260504235858 | 80 | 168 | 8.0 | 10.0 | 0.00 | 0.00 | 0.00 | 70 | 1009.5 |
| 20260504235355 | 80 | 164 | 2.0 | 2.0 | 0.00 | 0.00 | 0.00 | 70 | 1009.6 |
| 20260504234851 | 80 | 148 | 1.0 | 2.0 | 0.00 | 0.00 | 0.00 | 70 | 1009.8 |
| 20260504234349 | 80 | 190 | 2.0 | 3.0 | 0.00 | 0.00 | 0.00 | 70 | 1009.6 |
| 20260504233846 | 80 | 155 | 3.0 | 6.0 | 0.00 | 0.00 | 0.00 | 68 | 1009.5 |
| 20260504233341 | 81 | 187 | 3.0 | 5.0 | 0.00 | 0.00 | 0.00 | 68 | 1009.6 |
| 20260504232838 | 80 | 199 | 5.0 | 6.0 | 0.00 | 0.00 | 0.00 | 69 | 1009.8 |
| 20260504232336 | 80 | 196 | 4.0 | 6.0 | 0.00 | 0.00 | 0.00 | 69 | 1010.0 |
| 20260504231832 | 80 | 173 | 3.0 | 3.0 | 0.00 | 0.00 | 0.00 | 70 | 1010.0 |
| 20260504231329 | 81 | 188 | 5.0 | 6.0 | 0.00 | 0.00 | 0.00 | 68 | 1009.6 |
| 20260504230825 | 82 | 168 | 7.0 | 9.0 | 0.00 | 0.00 | 0.00 | 68 | 1009.7 |
| 20260504230323 | 81 | 194 | 5.0 | 10.0 | 0.00 | 0.00 | 0.00 | 69 | 1010.2 |
| 20260504225822 | 80 | 265 | 3.0 | 5.0 | 0.00 | 0.00 | 0.00 | 69 | 1010.1 |
| 20260504225317 | 80 | 159 | 5.0 | 7.0 | 0.00 | 0.00 | 0.00 | 70 | 1010.2 |
| 20260504224815 | 80 | 142 | 4.0 | 8.0 | 0.00 | 0.00 | 0.00 | 71 | 1010.0 |
| 20260504224312 | 80 | 209 | 2.0 | 3.0 | 0.00 | 0.00 | 0.00 | 70 | 1009.9 |
| 20260504223809 | 80 | 200 | 3.0 | 3.0 | 0.00 | 0.00 | 0.00 | 70 | 1010.0 |
| 20260504223304 | 79 | 185 | 4.0 | 6.0 | 0.00 | 0.00 | 0.00 | 70 | 1010.3 |
| 20260504222801 | 80 | 188 | 5.0 | 7.0 | 0.00 | 0.00 | 0.00 | 70 | 1010.4 |
| 20260504222258 | 80 | 127 | 1.0 | 2.0 | 0.00 | 0.00 | 0.00 | 71 | 1010.4 |
| 20260504221756 | 79 | 170 | 4.0 | 6.0 | 0.00 | 0.00 | 0.00 | 70 | 1010.4 |
| 20260504221253 | 80 | 221 | 2.0 | 2.0 | 0.00 | 0.00 | 0.00 | 69 | 1010.3 |
| 20260504220749 | 80 | 175 | 1.0 | 2.0 | 0.00 | 0.00 | 0.00 | 69 | 1010.6 |
| 20260504220246 | 80 | 135 | 6.0 | 8.0 | 0.00 | 0.00 | 0.00 | 67 | 1010.7 |
| 20260504215744 | 81 | 133 | 3.0 | 5.0 | 0.00 | 0.00 | 0.00 | 68 | 1010.8 |
| 20260504215240 | 81 | 160 | 9.0 | 10.0 | 0.00 | 0.00 | 0.00 | 67 | 1010.6 |
| 20260504214736 | 80 | 171 | 6.0 | 8.0 | 0.00 | 0.00 | 0.00 | 68 | 1010.4 |
| 20260504214232 | 80 | 189 | 6.0 | 8.0 | 0.00 | 0.00 | 0.00 | 68 | 1010.6 |
| 20260504213729 | 80 | 184 | 5.0 | 5.0 | 0.00 | 0.00 | 0.00 | 69 | 1010.6 |
| 20260504213225 | 80 | 158 | 6.0 | 7.0 | 0.00 | 0.00 | 0.00 | 67 | 1011.0 |
| 20260504212722 | 80 | 181 | 5.0 | 7.0 | 0.00 | 0.00 | 0.00 | 68 | 1011.2 |
| 20260504212214 | 80 | 146 | 9.0 | 13.0 | 0.00 | 0.00 | 0.00 | 67 | 1011.4 |
| 20260504211711 | 81 | 172 | 3.0 | 5.0 | 0.00 | 0.00 | 0.00 | 68 | 1011.2 |
| 20260504211207 | 81 | 189 | 3.0 | 5.0 | 0.00 | 0.00 | 0.00 | 67 | 1011.4 |
| 20260504210705 | 80 | 177 | 5.0 | 8.0 | 0.00 | 0.00 | 0.00 | 67 | 1011.6 |
| 20260504210201 | 80 | 191 | 5.0 | 6.0 | 0.00 | 0.00 | 0.00 | 68 | 1011.6 |
| 20260504205659 | 80 | 185 | 2.0 | 3.0 | 0.00 | 0.00 | 0.00 | 69 | 1011.6 |
| 20260504205155 | 80 | 144 | 4.0 | 5.0 | 0.00 | 0.00 | 0.00 | 69 | 1011.6 |
| 20260504204654 | 80 | 217 | 6.0 | 7.0 | 0.00 | 0.00 | 0.00 | 68 | 1011.5 |
| 20260504204153 | 81 | 241 | 4.0 | 6.0 | 0.00 | 0.00 | 0.00 | 67 | 1012.0 |
| 20260504203651 | 81 | 122 | 4.0 | 5.0 | 0.00 | 0.00 | 0.00 | 67 | 1012.1 |
| 20260504203148 | 81 | 222 | 4.0 | 6.0 | 0.00 | 0.00 | 0.00 | 67 | 1012.0 |
| 20260504202643 | 80 | 123 | 5.0 | 6.0 | 0.00 | 0.00 | 0.00 | 68 | 1012.4 |
| 20260504202140 | 80 | 203 | 4.0 | 6.0 | 0.00 | 0.00 | 0.00 | 67 | 1012.3 |
| 20260504201637 | 79 | 155 | 6.0 | 9.0 | 0.00 | 0.00 | 0.00 | 68 | 1012.4 |
| 20260504201135 | 79 | 215 | 7.0 | 9.0 | 0.00 | 0.00 | 0.00 | 68 | 1012.5 |
| 20260504200632 | 79 | 194 | 6.0 | 8.0 | 0.00 | 0.00 | 0.00 | 68 | 1012.5 |
| 20260504200128 | 79 | 195 | 5.0 | 6.0 | 0.00 | 0.00 | 0.00 | 68 | 1012.8 |
| 20260504195624 | 80 | 174 | 6.0 | 11.0 | 0.00 | 0.00 | 0.00 | 68 | 1012.8 |
| 20260504195121 | 80 | 165 | 5.0 | 6.0 | 0.00 | 0.00 | 0.00 | 68 | 1013.1 |
| 20260504194617 | 79 | 124 | 2.0 | 3.0 | 0.00 | 0.00 | 0.00 | 68 | 1013.0 |
| 20260504194113 | 80 | 99 | 8.0 | 10.0 | 0.00 | 0.00 | 0.00 | 66 | 1012.9 |